TimeEST,TemperatureF,Dew PointF,Humidity,Sea Level PressureIn,VisibilityMPH,Wind Direction,Wind SpeedMPH,Gust SpeedMPH,PrecipitationIn,Events,Conditions,WindDirDegrees,DateUTC
12:15 AM,32.0,26.6,80,30.03,10.0,SW,9.2,-,N/A,,Overcast,230,2013-01-01 05:15:00
12:35 AM,32.0,26.6,80,30.02,10.0,WSW,9.2,-,N/A,,Overcast,240,2013-01-01 05:35:00
1:15 AM,32.0,26.6,80,30.03,10.0,SW,9.2,-,N/A,,Overcast,230,2013-01-01 06:15:00
1:35 AM,32.0,28.4,87,30.01,10.0,WSW,8.1,-,N/A,,Overcast,240,2013-01-01 06:35:00
1:55 AM,32.0,28.4,87,30.01,10.0,SW,5.8,-,N/A,,Overcast,230,2013-01-01 06:55:00
2:15 AM,32.0,28.4,87,30.02,7.0,SW,6.9,-,N/A,,Overcast,230,2013-01-01 07:15:00
2:35 AM,30.2,28.4,93,30.02,2.5,SW,5.8,-,N/A,,Overcast,220,2013-01-01 07:35:00
2:55 AM,30.2,28.4,93,30.01,2.5,SW,3.5,-,N/A,,Overcast,220,2013-01-01 07:55:00
3:15 AM,30.2,28.4,93,30.01,2.0,SW,4.6,-,N/A,,Overcast,220,2013-01-01 08:15:00
3:35 AM,30.2,28.4,93,30.01,3.0,SW,5.8,-,N/A,,Overcast,220,2013-01-01 08:35:00
3:55 AM,30.2,28.4,93,30.01,4.0,SW,6.9,-,N/A,,Overcast,230,2013-01-01 08:55:00
4:15 AM,30.2,28.4,93,30.00,4.0,SW,8.1,-,N/A,,Overcast,230,2013-01-01 09:15:00
4:35 AM,30.2,28.4,93,30.01,3.0,SW,6.9,-,N/A,,Overcast,220,2013-01-01 09:35:00
4:55 AM,30.2,28.4,93,29.99,3.0,SW,6.9,-,N/A,,Overcast,230,2013-01-01 09:55:00
5:15 AM,30.2,28.4,93,29.99,2.5,SW,8.1,-,N/A,,Overcast,220,2013-01-01 10:15:00
5:35 AM,30.2,28.4,93,29.99,2.5,SW,6.9,-,N/A,,Overcast,230,2013-01-01 10:35:00
5:55 AM,30.2,28.4,93,29.99,4.0,SW,4.6,-,N/A,,Overcast,230,2013-01-01 10:55:00
6:15 AM,30.2,28.4,93,29.99,3.0,SW,6.9,-,N/A,,Overcast,230,2013-01-01 11:15:00
6:35 AM,30.2,28.4,93,29.99,6.0,SW,5.8,-,N/A,,Overcast,230,2013-01-01 11:35:00
6:55 AM,30.2,28.4,93,30.00,5.0,WSW,4.6,-,N/A,,Overcast,240,2013-01-01 11:55:00
7:15 AM,30.2,28.4,93,30.00,4.0,WSW,6.9,-,N/A,,Overcast,240,2013-01-01 12:15:00
7:35 AM,30.2,28.4,93,30.00,2.5,WSW,8.1,-,N/A,,Overcast,240,2013-01-01 12:35:00
7:55 AM,30.2,28.4,93,30.00,3.0,WSW,6.9,-,N/A,,Overcast,240,2013-01-01 12:55:00
8:15 AM,30.2,28.4,93,30.01,5.0,WSW,5.8,-,N/A,,Overcast,250,2013-01-01 13:15:00
8:35 AM,30.2,28.4,93,30.01,7.0,WSW,8.1,-,N/A,,Overcast,240,2013-01-01 13:35:00
8:55 AM,30.2,28.4,93,30.01,10.0,WSW,6.9,-,N/A,,Overcast,250,2013-01-01 13:55:00
9:15 AM,30.2,28.4,93,30.02,10.0,WSW,8.1,-,N/A,,Overcast,250,2013-01-01 14:15:00
9:35 AM,30.2,28.4,93,30.01,10.0,WSW,9.2,-,N/A,,Overcast,250,2013-01-01 14:35:00
9:55 AM,32.0,28.4,87,30.01,7.0,WSW,6.9,-,N/A,,Overcast,250,2013-01-01 14:55:00
10:15 AM,32.0,28.4,87,30.02,7.0,West,8.1,-,N/A,,Overcast,260,2013-01-01 15:15:00
10:35 AM,32.0,28.4,87,30.04,10.0,WSW,8.1,-,N/A,,Overcast,250,2013-01-01 15:35:00
10:55 AM,32.0,28.4,87,30.04,10.0,West,6.9,-,N/A,,Overcast,260,2013-01-01 15:55:00
11:15 AM,32.0,28.4,87,30.03,10.0,West,6.9,-,N/A,,Overcast,270,2013-01-01 16:15:00
11:35 AM,32.0,28.4,87,30.01,10.0,West,4.6,-,N/A,,Overcast,270,2013-01-01 16:35:00
11:55 AM,32.0,28.4,87,29.99,10.0,West,6.9,-,N/A,,Overcast,260,2013-01-01 16:55:00
12:15 PM,32.0,28.4,87,29.99,10.0,West,4.6,-,N/A,,Overcast,260,2013-01-01 17:15:00
12:35 PM,32.0,28.4,87,29.98,10.0,West,6.9,-,N/A,,Overcast,280,2013-01-01 17:35:00
12:55 PM,32.0,26.6,80,29.98,8.0,WNW,8.1,-,N/A,,Overcast,300,2013-01-01 17:55:00
1:15 PM,30.2,26.6,86,29.98,6.0,WNW,3.5,-,N/A,,Overcast,300,2013-01-01 18:15:00
1:35 PM,32.0,26.6,80,29.98,7.0,West,8.1,-,N/A,,Overcast,280,2013-01-01 18:35:00
2:15 PM,33.8,26.6,75,29.97,9.0,NW,6.9,-,N/A,,Mostly Cloudy,320,2013-01-01 19:15:00
2:35 PM,30.2,26.6,86,29.98,5.0,NW,6.9,-,N/A,,Overcast,310,2013-01-01 19:35:00
2:55 PM,30.2,26.6,86,29.97,8.0,WNW,5.8,-,N/A,,Overcast,290,2013-01-01 19:55:00
3:15 PM,30.2,24.8,80,29.99,8.0,WNW,8.1,-,N/A,,Overcast,300,2013-01-01 20:15:00
3:35 PM,30.2,24.8,80,29.98,9.0,WNW,6.9,-,N/A,,Overcast,300,2013-01-01 20:35:00
3:55 PM,30.2,23.0,75,30.00,10.0,WNW,5.8,-,N/A,,Overcast,290,2013-01-01 20:55:00
4:15 PM,30.2,24.8,80,30.01,10.0,West,6.9,-,N/A,,Overcast,270,2013-01-01 21:15:00
4:35 PM,30.2,23.0,75,30.01,10.0,NW,8.1,-,N/A,,Overcast,310,2013-01-01 21:35:00
5:15 PM,30.2,23.0,75,30.02,10.0,West,4.6,-,N/A,,Overcast,270,2013-01-01 22:15:00
5:35 PM,30.2,23.0,75,30.02,10.0,WNW,4.6,-,N/A,,Overcast,300,2013-01-01 22:35:00
5:55 PM,28.4,21.2,74,30.01,10.0,WNW,4.6,-,N/A,,Overcast,290,2013-01-01 22:55:00
6:15 PM,28.4,23.0,80,30.01,10.0,NNW,6.9,-,N/A,,Overcast,330,2013-01-01 23:15:00
6:35 PM,28.4,21.2,74,30.03,10.0,NNW,4.6,-,N/A,,Overcast,330,2013-01-01 23:35:00
6:55 PM,28.4,23.0,80,30.03,10.0,NNW,5.8,-,N/A,,Overcast,330,2013-01-01 23:55:00
7:15 PM,26.6,21.2,80,30.04,10.0,North,6.9,-,N/A,,Overcast,350,2013-01-02 00:15:00
7:35 PM,26.6,21.2,80,30.04,10.0,NNW,6.9,-,N/A,,Overcast,340,2013-01-02 00:35:00
7:55 PM,26.6,19.4,74,30.04,10.0,North,5.8,-,N/A,,Overcast,10,2013-01-02 00:55:00
8:15 PM,26.6,19.4,74,30.04,10.0,North,3.5,-,N/A,,Overcast,350,2013-01-02 01:15:00
8:35 PM,26.6,19.4,74,30.04,10.0,NW,3.5,-,N/A,,Overcast,320,2013-01-02 01:35:00
8:55 PM,26.6,19.4,74,30.05,10.0,NW,4.6,-,N/A,,Overcast,310,2013-01-02 01:55:00
9:15 PM,26.6,19.4,74,30.04,10.0,NW,4.6,-,N/A,,Overcast,320,2013-01-02 02:15:00
9:35 PM,26.6,19.4,74,30.04,10.0,NW,4.6,-,N/A,,Overcast,320,2013-01-02 02:35:00
9:55 PM,24.8,19.4,80,30.05,10.0,NNW,3.5,-,N/A,,Overcast,340,2013-01-02 02:55:00
10:15 PM,24.8,17.6,74,30.06,10.0,NW,5.8,-,N/A,,Overcast,320,2013-01-02 03:15:00
10:35 PM,24.8,17.6,74,30.05,10.0,NNW,5.8,-,N/A,,Overcast,340,2013-01-02 03:35:00
10:55 PM,24.8,17.6,74,30.06,10.0,NNW,5.8,-,N/A,,Overcast,340,2013-01-02 03:55:00
11:15 PM,24.8,17.6,74,30.07,10.0,NNW,3.5,-,N/A,,Overcast,330,2013-01-02 04:15:00
11:35 PM,24.8,17.6,74,30.06,10.0,NNW,3.5,-,N/A,,Overcast,330,2013-01-02 04:35:00
11:55 PM,23.0,17.6,80,30.06,10.0,Calm,Calm,-,N/A,,Overcast,0,2013-01-02 04:55:00